Temp
80 82 81 73 60 60 61 65 70 69 70 76 78 75 68 69 67 56 72 75 76 76 78 79 82 83 82 82 82 82 82 82 83 83 83 83 83 83 83 83 83 83 83 84 84 83 83 83 84
81 86 73 66 58 55 59 70 67 72 76 77 77 74 69 64 73 69 69 76 78 77 75 79 80 81 83 83 83 82 82 83 82 83 83 83 83 83 83 83 83 83 83 84 84 84 84 84 84
84 85 65 59 59 55 60 70 72 77 79 77 75 77 72 65 73 72 75 79 79 77 75 79 81 82 83 82 82 81 83 83 82 82 83 83 83 84 84 83 83 83 84 84 84 84 84 84 84
81 72 68 61 61 70 72 72 76 76 76 78 76 67 75 79 74 78 79 80 76 74 77 82 83 83 83 82 82 82 82 83 83 83 83 83 84 84 84 84 84 84 84 84 84 84 84 84 83
73 67 59 58 63 73 76 78 80 74 75 74 75 68 69 78 81 80 78 80 74 74 75 80 82 83 83 83 83 82 83 83 83 83 82 82 84 84 84 84 84 84 84 84 84 83 83 83 82
66 65 56 54 61 75 76 81 78 75 75 75 72 70 68 79 77 79 79 77 77 75 76 79 82 83 83 83 83 83 83 83 83 82 83 84 84 84 84 84 84 84 84 83 83 83 83 83 83
63 59 56 57 61 70 76 83 78 74 74 74 79 67 71 75 78 76 73 73 75 77 76 78 78 81 83 83 83 83 83 83 83 83 83 84 84 84 84 84 84 84 84 84 83 83 83 83 83
65 62 57 59 59 61 77 83 83 79 77 84 81 66 66 74 76 72 74 73 72 74 75 74 75 76 77 79 83 83 83 83 83 83 84 84 84 85 85 83 84 85 84 84 83 83 83 83 83
71 57 55 60 61 69 74 76 85 87 79 81 83 77 77 77 76 71 71 69 72 73 72 72 73 74 74 76 80 83 84 84 84 83 84 82 76 78 80 81 84 84 84 84 83 83 83 83 83
67 57 59 68 69 66 72 74 77 79 78 76 77 79 78 76 75 72 69 69 69 72 73 72 73 73 74 81 76 75 77 76 76 76 77 74 74 75 80 81 84 84 84 84 84 84 84 83 78
66 60 69 74 74 72 70 73 81 77 70 77 73 75 77 74 72 72 71 70 72 73 74 72 73 73 74 76 73 73 73 74 74 75 75 74 76 75 75 74 76 75 81 77 80 80 79 79 77
68 74 72 77 77 71 72 75 74 75 74 83 83 81 80 75 73 73 72 73 71 72 73 72 72 72 72 73 72 70 72 74 74 76 76 74 73 72 72 73 73 75 75 75 75 75 77 77 78
72 76 72 79 77 73 75 73 72 74 80 85 86 83 81 78 78 78 77 76 73 73 72 73 71 71 73 73 71 71 71 72 74 75 76 74 72 72 73 73 73 75 74 74 75 75 76 76 77
76 76 72 76 75 76 74 70 74 74 79 82 83 79 80 79 79 76 76 73 71 75 73 72 70 72 72 72 71 71 71 74 75 78 75 76 75 73 74 74 74 75 75 76 75 76 77 77 78
79 66 70 67 70 72 75 67 68 75 75 79 78 80 79 81 80 76 79 76 76 77 76 73 71 72 70 71 72 70 70 76 74 75 77 77 75 75 75 75 75 76 76 77 80 79 78 78 79
73 68 60 67 70 74 72 58 68 72 73 72 75 79 82 80 83 82 80 79 77 77 75 74 80 74 71 69 71 71 70 74 75 73 75 79 77 77 76 75 74 75 74 75 76 77 77 76 75
67 57 59 61 69 70 69 59 67 70 71 70 71 79 80 80 80 81 82 81 80 79 77 76 77 72 71 71 71 71 73 74 73 72 75 78 79 78 74 73 73 73 73 73 76 75 73 74 75
59 63 65 64 69 68 65 63 67 69 69 68 71 75 80 80 77 82 82 81 81 80 79 79 77 75 73 74 71 71 72 72 72 74 75 77 77 79 73 72 72 73 70 72 74 73 74 73 72
70 69 66 67 73 69 65 64 65 68 67 67 67 72 76 79 80 83 82 81 80 79 77 77 75 74 73 72 70 70 68 69 71 73 77 77 77 78 74 70 71 69 68 69 72 71 71 71 72
70 68 65 68 73 67 65 65 67 67 67 70 69 71 72 76 77 81 79 80 79 77 78 76 77 72 73 73 71 72 72 71 71 73 75 77 78 77 75 72 70 68 70 70 71 69 67 68 70
68 63 65 64 70 71 65 60 64 68 68 71 72 72 74 77 80 77 78 79 79 76 76 76 74 73 74 73 72 71 70 69 70 72 74 76 78 78 75 73 70 70 70 71 70 70 69 67 68
63 74 73 70 63 53 65 49 58 64 64 68 72 70 73 76 78 78 78 78 78 77 78 77 76 75 73 72 72 72 70 69 70 72 73 75 78 78 77 74 73 72 70 70 72 71 70 67 67
67 74 71 70 60 56 59 53 57 62 60 65 70 73 72 76 77 78 78 79 80 80 78 77 77 75 74 72 72 72 70 69 72 71 73 73 74 78 79 76 74 73 72 72 72 71 70 69 67
76 69 63 59 54 48 56 56 53 57 63 67 70 73 76 75 76 80 81 81 79 81 79 78 76 74 73 73 72 72 71 71 69 70 71 72 74 76 77 78 75 75 73 74 76 74 73 72 71
66 54 45 45 45 46 57 54 58 66 69 70 70 72 76 74 75 76 75 78 78 78 78 77 76 75 74 74 74 72 72 71 71 72 72 72 72 72 74 76 75 75 76 76 75 75 75 74 73
59 57 47 41 41 48 58 50 58 70 72 74 75 74 76 74 75 76 78 79 79 79 79 78 75 76 74 74 74 72 72 72 71 73 72 72 73 74 76 76 76 76 77 76 75 74 74 74 73
59 54 60 50 44 46 51 57 65 69 67 70 69 72 72 74 73 77 79 77 76 79 78 78 76 76 75 75 76 73 72 72 72 73 73 74 74 77 75 76 75 76 76 77 75 74 74 74 73
67 67 55 49 42 40 49 51 52 60 61 67 68 68 70 71 71 72 73 73 79 80 80 80 78 77 76 76 76 76 75 74 73 73 73 73 74 75 74 75 75 75 76 76 74 74 74 73 73
61 56 54 53 49 44 42 48 60 63 64 64 64 67 67 70 70 71 69 72 77 80 81 79 79 78 76 77 76 76 76 75 74 73 74 73 74 74 74 74 74 73 74 75 74 74 74 74 73
66 62 56 49 48 46 47 49 65 66 68 67 65 67 67 67 69 69 70 69 72 72 75 78 78 77 77 77 76 75 75 76 74 74 74 74 73 73 74 74 74 74 74 74 74 74 75 73 73
MSLP
1010.17 1010.34 1010.55 1010.79 1011.61 1011.21 1010.36 1009.70 1009.04 1009.12 1009.37 1009.74 1009.73 1010.28 1011.92 1012.49 1012.74 1014.36 1014.24 1014.71 1014.94 1015.23 1015.23 1015.19 1015.21 1015.34 1015.40 1015.60 1015.74 1015.71 1015.84 1015.86 1015.80 1015.77 1016.05 1016.27 1016.29 1016.35 1016.41 1016.43 1016.23 1016.33 1016.34 1016.40 1016.52 1016.61 1016.81 1016.94 1016.90
1010.17 1010.39 1010.97 1011.14 1011.51 1011.18 1010.35 1009.39 1008.97 1008.87 1009.47 1009.80 1010.22 1010.90 1011.70 1013.07 1012.95 1013.92 1014.66 1014.84 1014.96 1015.29 1015.39 1015.24 1015.44 1015.53 1015.59 1015.65 1015.79 1015.91 1016.09 1015.95 1015.80 1015.69 1016.27 1016.50 1016.54 1016.58 1016.65 1016.55 1016.50 1016.57 1016.56 1016.63 1016.78 1016.87 1017.05 1017.16 1017.11
1010.21 1010.40 1011.68 1011.84 1011.68 1010.99 1010.09 1009.32 1008.80 1008.90 1009.38 1009.44 1010.44 1011.15 1012.13 1013.21 1013.65 1014.04 1014.35 1014.72 1015.06 1015.47 1015.65 1015.60 1015.52 1015.63 1015.81 1015.91 1016.04 1016.20 1016.09 1016.00 1015.77 1016.15 1016.56 1016.72 1016.75 1016.85 1016.77 1016.76 1016.79 1016.94 1016.80 1016.86 1017.07 1017.11 1017.34 1017.44 1017.44
1010.59 1011.28 1011.90 1012.05 1011.28 1009.87 1009.14 1008.84 1008.59 1009.01 1009.63 1009.97 1010.67 1012.02 1012.91 1013.17 1013.51 1013.88 1014.51 1014.76 1015.35 1015.82 1015.90 1015.84 1015.85 1015.84 1015.93 1016.08 1016.25 1016.27 1016.37 1016.37 1016.56 1016.90 1016.90 1016.99 1016.74 1016.96 1016.90 1016.91 1016.88 1016.99 1017.00 1017.10 1017.30 1017.37 1017.51 1017.57 1017.69
1011.84 1012.52 1013.18 1012.82 1011.38 1009.74 1008.99 1008.29 1008.22 1008.91 1009.56 1010.47 1010.83 1012.56 1013.34 1013.92 1013.74 1014.57 1015.04 1015.19 1015.68 1016.03 1016.00 1015.98 1016.03 1016.13 1016.31 1016.60 1016.68 1016.62 1016.86 1016.96 1017.15 1017.20 1017.26 1017.26 1017.20 1017.10 1017.11 1017.07 1017.08 1017.14 1017.26 1017.41 1017.57 1017.62 1017.80 1017.81 1017.99
1012.48 1013.62 1014.02 1013.61 1011.95 1009.92 1008.81 1008.12 1008.11 1008.93 1009.80 1010.80 1011.24 1012.25 1013.62 1013.94 1014.44 1015.16 1015.47 1015.62 1015.54 1016.01 1016.11 1016.06 1016.14 1016.39 1016.49 1016.67 1016.76 1016.85 1017.02 1017.26 1017.48 1017.49 1017.45 1017.37 1017.39 1017.32 1017.44 1017.32 1017.36 1017.40 1017.50 1017.73 1017.82 1017.90 1017.94 1018.14 1018.16
1012.90 1014.55 1015.33 1014.16 1012.60 1010.25 1009.38 1008.72 1008.57 1009.10 1009.75 1010.58 1011.00 1012.28 1014.01 1014.84 1015.27 1015.73 1015.92 1016.11 1016.15 1016.28 1016.59 1016.42 1016.37 1016.45 1016.62 1016.63 1016.74 1016.98 1017.26 1017.56 1017.63 1017.62 1017.73 1017.69 1017.61 1017.62 1017.61 1017.57 1017.63 1017.63 1017.80 1017.96 1017.96 1018.13 1018.27 1018.35 1018.28
1013.37 1014.48 1015.16 1014.26 1013.01 1010.82 1009.44 1008.20 1008.31 1008.41 1009.30 1010.19 1010.81 1012.65 1014.03 1014.91 1015.58 1015.83 1016.54 1016.78 1016.71 1016.47 1016.56 1016.86 1016.79 1016.74 1016.82 1017.00 1017.08 1017.25 1017.51 1017.72 1017.85 1017.79 1017.92 1017.94 1017.78 1017.82 1017.79 1017.84 1017.86 1017.88 1017.98 1018.01 1018.09 1018.34 1018.45 1018.41 1018.48
1013.51 1014.81 1014.87 1013.77 1012.96 1011.07 1010.43 1009.30 1008.88 1008.60 1009.14 1009.93 1010.12 1011.55 1013.15 1014.54 1015.51 1016.41 1017.10 1017.26 1016.89 1016.79 1016.94 1017.10 1016.85 1016.86 1017.00 1017.18 1017.28 1017.42 1017.66 1017.87 1017.90 1018.03 1018.11 1018.09 1018.16 1018.17 1018.07 1018.12 1018.13 1018.14 1018.15 1018.17 1018.27 1018.38 1018.39 1018.35 1018.39
1013.23 1014.01 1013.39 1011.78 1011.82 1011.50 1011.00 1010.22 1009.54 1009.53 1009.91 1010.34 1011.06 1012.14 1013.57 1014.64 1015.17 1015.88 1016.54 1016.97 1016.99 1016.92 1017.05 1017.07 1016.95 1017.12 1017.17 1017.15 1017.43 1017.74 1017.91 1017.98 1018.10 1018.19 1018.22 1018.42 1018.38 1018.40 1018.30 1018.37 1018.38 1018.37 1018.33 1018.38 1018.42 1018.43 1018.42 1018.45 1018.58
1011.83 1012.31 1011.74 1010.98 1010.83 1011.38 1011.39 1010.50 1009.58 1009.41 1010.12 1010.29 1010.96 1012.22 1013.42 1014.36 1014.98 1015.43 1016.16 1016.23 1016.22 1016.61 1016.79 1017.01 1017.21 1017.37 1017.32 1017.32 1017.70 1018.05 1018.18 1018.30 1018.29 1018.33 1018.34 1018.56 1018.51 1018.52 1018.58 1018.72 1018.65 1018.69 1018.64 1018.75 1018.72 1018.67 1018.55 1018.56 1018.65
1010.55 1010.53 1010.90 1010.19 1010.61 1011.22 1011.32 1010.90 1010.58 1010.26 1010.39 1010.16 1010.69 1011.44 1012.47 1013.78 1014.34 1014.97 1015.87 1016.31 1016.57 1016.78 1016.46 1016.90 1017.42 1017.63 1017.53 1017.41 1017.77 1018.12 1018.35 1018.44 1018.58 1018.41 1018.35 1018.64 1018.74 1018.84 1018.87 1018.94 1018.97 1018.97 1018.97 1018.86 1018.95 1018.94 1018.82 1018.87 1018.64
1009.46 1009.80 1010.42 1009.98 1010.47 1010.97 1010.78 1011.17 1011.33 1011.30 1010.83 1010.80 1010.92 1011.34 1012.04 1012.94 1013.64 1014.21 1014.81 1015.93 1016.34 1016.40 1016.55 1016.78 1017.36 1017.52 1017.56 1017.59 1017.83 1018.02 1018.34 1018.50 1018.46 1018.40 1018.26 1018.59 1018.84 1018.79 1018.87 1019.02 1019.05 1018.93 1018.76 1018.75 1018.72 1018.70 1018.71 1018.61 1018.21
1008.61 1009.52 1010.49 1010.48 1010.66 1010.66 1010.91 1011.51 1011.23 1011.34 1010.75 1010.82 1010.92 1011.20 1011.72 1012.22 1012.84 1013.84 1014.81 1015.64 1016.21 1016.24 1016.45 1016.85 1017.22 1017.22 1017.53 1017.72 1017.89 1018.02 1018.15 1018.12 1018.28 1018.01 1018.10 1018.33 1018.57 1018.75 1018.81 1018.91 1018.81 1018.58 1018.36 1018.21 1018.28 1018.27 1018.28 1018.32 1018.24
1008.29 1010.12 1010.53 1010.85 1010.55 1010.79 1011.00 1011.57 1011.49 1011.24 1011.42 1011.06 1011.31 1011.18 1011.42 1011.79 1012.45 1013.05 1013.67 1014.48 1015.19 1015.58 1016.09 1016.47 1016.89 1017.08 1017.56 1017.56 1017.93 1018.07 1018.13 1017.87 1018.08 1017.98 1017.88 1018.10 1018.33 1018.68 1018.52 1018.59 1018.52 1018.36 1018.30 1018.25 1018.13 1018.28 1018.05 1017.94 1018.02
1008.56 1009.44 1010.57 1010.94 1010.94 1010.34 1010.95 1011.39 1011.36 1011.64 1011.83 1011.84 1011.51 1011.21 1011.05 1011.45 1011.83 1012.64 1013.35 1013.89 1014.76 1015.25 1015.86 1016.29 1016.60 1017.04 1017.24 1017.73 1017.80 1017.90 1017.81 1017.72 1017.84 1018.05 1017.87 1017.86 1018.13 1018.28 1018.34 1018.48 1018.42 1018.28 1018.47 1018.36 1018.34 1018.32 1018.22 1018.10 1018.30
1008.96 1009.56 1010.69 1011.17 1010.81 1010.66 1010.99 1011.45 1011.32 1011.70 1011.61 1011.86 1011.56 1010.99 1010.85 1011.22 1011.52 1011.97 1012.43 1013.11 1013.96 1014.75 1015.54 1016.29 1016.57 1016.69 1016.78 1017.31 1017.47 1017.85 1017.94 1017.66 1017.80 1018.32 1017.82 1017.66 1017.80 1018.10 1018.40 1018.44 1018.36 1018.54 1018.55 1018.33 1018.38 1018.58 1018.52 1018.47 1018.71
1008.84 1009.31 1009.90 1009.93 1009.87 1010.30 1010.88 1011.08 1011.08 1011.02 1011.35 1011.81 1011.65 1011.22 1010.95 1011.07 1011.36 1011.68 1012.42 1012.80 1013.60 1014.43 1015.08 1015.63 1016.21 1016.54 1016.61 1017.10 1017.54 1017.87 1017.91 1017.72 1017.89 1017.86 1017.66 1017.63 1017.79 1018.02 1018.23 1018.40 1018.32 1018.37 1018.78 1018.37 1018.36 1018.81 1018.87 1018.76 1018.57
1008.23 1008.54 1008.63 1009.03 1009.08 1009.86 1010.16 1010.72 1010.84 1010.90 1011.24 1011.29 1011.36 1011.23 1011.01 1010.78 1011.20 1011.73 1012.20 1012.90 1013.68 1014.31 1014.84 1015.24 1015.86 1016.48 1016.92 1017.18 1017.65 1017.94 1018.29 1018.17 1018.08 1017.79 1017.44 1017.76 1017.82 1017.96 1018.00 1018.23 1018.11 1018.60 1018.69 1018.70 1018.68 1018.97 1019.42 1019.05 1018.86
1007.62 1007.99 1008.32 1008.66 1008.83 1009.43 1010.09 1010.41 1010.64 1010.88 1010.46 1010.59 1010.88 1010.99 1010.97 1011.02 1011.26 1011.81 1012.42 1012.97 1013.45 1013.85 1014.28 1014.98 1015.21 1015.96 1016.53 1016.69 1017.21 1017.47 1017.79 1018.06 1018.00 1017.62 1017.49 1017.78 1017.62 1017.78 1017.84 1017.94 1018.28 1018.44 1018.52 1018.45 1018.57 1018.96 1019.79 1019.45 1019.17
1006.76 1006.76 1007.40 1007.73 1008.61 1009.15 1009.83 1010.74 1010.90 1010.57 1010.78 1010.68 1010.80 1010.99 1010.94 1010.67 1010.72 1011.46 1011.93 1012.60 1013.27 1013.83 1014.11 1014.58 1015.02 1015.44 1016.20 1016.55 1017.07 1017.49 1018.02 1018.16 1018.15 1017.77 1017.66 1017.54 1017.46 1017.55 1017.64 1017.87 1018.29 1018.24 1018.28 1018.62 1018.77 1018.61 1019.02 1019.91 1019.79
1006.08 1005.61 1006.38 1007.20 1008.68 1009.33 1009.24 1010.28 1009.84 1009.92 1010.22 1010.44 1010.02 1010.36 1010.09 1010.13 1010.09 1010.71 1011.60 1012.16 1012.72 1013.29 1013.78 1014.27 1014.74 1015.15 1015.78 1016.57 1016.74 1017.19 1017.71 1017.86 1017.72 1017.64 1017.49 1017.44 1017.23 1017.43 1017.41 1017.62 1017.90 1018.18 1018.17 1018.43 1018.67 1018.70 1018.98 1019.57 1019.77
1005.34 1005.32 1006.53 1007.61 1008.76 1009.22 1009.49 1010.05 1009.21 1009.26 1009.86 1009.19 1009.07 1009.14 1009.49 1009.38 1009.34 1009.77 1010.52 1011.22 1012.06 1012.89 1013.42 1013.81 1014.45 1015.06 1015.61 1016.07 1016.39 1017.02 1017.39 1017.45 1017.44 1017.54 1017.41 1017.37 1017.29 1017.23 1017.16 1017.43 1017.68 1017.84 1017.99 1018.16 1018.37 1018.47 1018.70 1019.15 1019.59
1005.10 1006.04 1007.37 1008.65 1009.51 1009.98 1009.44 1010.07 1009.29 1008.86 1007.74 1007.75 1008.06 1008.22 1008.68 1009.12 1009.38 1009.57 1010.06 1010.99 1011.62 1012.53 1013.17 1013.61 1014.24 1014.79 1015.34 1015.71 1015.98 1016.56 1017.07 1017.31 1017.58 1017.58 1017.43 1017.36 1017.23 1017.13 1017.02 1017.08 1017.24 1017.23 1017.48 1017.84 1018.09 1018.42 1018.57 1018.81 1019.18
1005.61 1007.58 1009.19 1010.28 1010.91 1010.69 1009.31 1009.66 1008.47 1007.57 1006.71 1006.44 1006.81 1007.19 1007.96 1008.64 1009.20 1009.55 1009.97 1010.53 1011.35 1011.93 1012.63 1013.37 1013.98 1014.60 1014.85 1015.30 1015.71 1016.09 1016.52 1016.93 1017.18 1017.21 1017.15 1017.25 1017.18 1017.03 1016.89 1016.81 1017.04 1017.14 1017.16 1017.40 1017.58 1018.07 1018.29 1018.40 1018.48
1005.87 1007.44 1009.42 1010.69 1011.53 1010.77 1009.54 1008.99 1008.00 1007.14 1006.26 1006.05 1006.28 1006.80 1007.69 1008.16 1008.60 1008.96 1009.20 1009.96 1010.53 1011.28 1011.94 1012.78 1013.50 1014.05 1014.57 1014.93 1015.20 1015.66 1016.08 1016.56 1016.82 1016.82 1016.94 1016.79 1016.88 1016.77 1016.48 1016.64 1016.61 1016.63 1016.74 1016.99 1017.26 1017.69 1017.99 1018.18 1018.32
1006.03 1007.30 1008.23 1010.10 1011.22 1011.16 1010.22 1009.08 1008.01 1007.48 1006.87 1006.88 1007.12 1007.45 1007.54 1008.04 1008.42 1008.85 1009.03 1009.47 1010.36 1010.88 1011.38 1011.95 1012.68 1013.26 1013.90 1014.33 1014.79 1015.14 1015.60 1016.05 1016.34 1016.46 1016.59 1016.54 1016.55 1016.53 1016.56 1016.49 1016.76 1016.64 1016.67 1016.80 1017.16 1017.41 1017.69 1017.92 1018.10
1005.39 1006.52 1008.45 1010.47 1011.44 1011.56 1010.73 1009.61 1008.76 1008.31 1007.94 1007.63 1007.44 1007.36 1007.46 1007.89 1008.50 1008.56 1008.88 1009.43 1009.60 1009.90 1010.58 1011.17 1011.88 1012.29 1012.90 1013.79 1014.31 1014.58 1014.94 1015.39 1015.68 1015.95 1016.29 1016.39 1016.36 1016.31 1016.16 1016.44 1016.74 1016.81 1016.81 1016.81 1017.09 1017.34 1017.51 1017.73 1017.92
1005.85 1006.74 1008.26 1009.79 1010.80 1011.41 1011.09 1010.12 1008.49 1008.39 1008.09 1008.22 1008.12 1007.76 1007.89 1008.15 1008.36 1008.77 1009.26 1009.04 1009.23 1009.49 1009.85 1010.48 1011.40 1011.88 1012.51 1013.18 1013.72 1014.20 1014.48 1014.78 1015.26 1015.54 1015.79 1016.03 1016.20 1016.19 1016.26 1016.34 1016.52 1016.69 1016.79 1016.89 1017.08 1017.23 1017.38 1017.56 1017.64
1005.75 1006.38 1007.66 1009.55 1010.72 1010.90 1010.58 1009.71 1008.44 1008.33 1008.22 1008.11 1008.38 1008.35 1008.41 1008.34 1008.61 1009.06 1009.29 1009.37 1009.17 1009.40 1009.93 1010.36 1010.82 1011.42 1011.69 1012.33 1013.30 1013.65 1014.13 1014.50 1014.80 1015.25 1015.51 1015.71 1015.99 1016.08 1016.05 1016.16 1016.28 1016.40 1016.50 1016.60 1016.78 1017.00 1017.05 1017.22 1017.34
Wind_Speed
5 2 0 1 5 4 3 2 4 5 5 7 12 8 7 11 2 4 7 10 8 8 7 10 15 13 13 12 11 10 9 11 12 14 12 11 12 12 12 11 13 11 11 12 11 10 10 12 13
2 1 4 2 5 3 2 5 11 13 16 16 15 12 10 5 6 11 8 9 12 8 5 8 14 13 12 13 13 11 8 10 12 13 11 10 11 10 12 12 12 12 11 12 11 10 10 11 12
2 4 3 4 2 3 2 2 12 15 14 10 8 10 5 6 9 12 10 13 12 7 5 6 11 12 11 10 8 8 8 10 12 11 11 10 10 11 12 13 12 12 12 12 11 10 11 10 10
2 5 4 3 3 5 5 8 15 18 18 15 15 10 7 4 13 8 17 13 11 6 5 11 14 15 13 13 11 9 8 10 10 11 11 9 11 12 12 12 13 11 11 11 11 10 10 9 7
4 4 3 3 5 4 8 12 14 14 9 18 18 13 13 13 11 18 13 13 11 7 7 8 13 13 13 12 11 12 11 10 11 11 11 11 12 12 12 13 13 11 10 9 9 9 7 7 4
5 2 4 4 8 2 4 8 15 16 16 17 15 11 5 13 16 13 11 11 10 10 5 8 13 13 12 12 12 12 11 9 10 11 11 11 10 11 12 12 11 10 9 7 7 7 5 5 3
7 5 4 7 9 3 8 3 11 19 18 9 14 10 8 13 12 10 7 5 5 7 4 6 6 11 13 13 12 11 11 11 11 10 10 11 11 11 11 11 11 10 9 7 5 4 3 4 5
6 4 1 4 5 7 7 4 16 18 12 16 13 8 17 18 17 12 4 5 5 5 6 4 3 4 6 5 11 11 11 10 10 10 12 10 10 9 10 7 7 8 7 6 4 2 2 4 4
4 5 4 6 7 3 8 10 4 11 18 14 4 18 19 22 23 16 6 3 2 4 5 4 5 5 5 5 6 10 11 10 10 9 10 8 3 4 6 4 6 6 5 4 3 3 4 5 7
1 4 12 11 8 1 6 5 5 12 15 14 17 19 23 24 24 17 14 10 5 6 6 6 6 6 5 5 3 4 3 3 4 4 4 2 3 4 4 5 5 5 5 5 5 5 7 6 3
7 5 10 13 11 4 3 5 5 9 7 19 22 26 23 22 19 19 15 14 15 11 6 6 5 5 5 5 3 2 2 2 2 4 4 4 3 3 1 1 2 1 4 2 3 4 3 4 3
5 6 9 5 7 5 3 2 5 10 2 18 22 25 23 22 18 19 18 16 12 11 10 7 4 5 3 4 3 2 1 2 3 4 5 3 2 3 2 2 2 2 3 3 3 3 4 5 6
4 9 8 8 9 5 4 5 4 8 2 11 13 16 17 20 18 18 18 15 12 12 9 9 7 6 4 4 3 2 2 3 4 5 5 4 3 4 3 3 3 3 4 4 4 4 4 5 7
8 12 8 6 5 7 7 3 5 3 6 15 13 12 15 12 12 14 16 16 11 11 10 8 8 7 6 5 4 3 4 4 4 4 5 6 5 3 3 3 4 4 4 4 4 4 3 3 2
9 13 9 2 2 4 6 2 2 3 5 3 3 8 10 11 16 18 18 15 16 15 11 13 10 6 7 7 6 3 4 4 4 4 5 5 4 5 2 2 4 4 2 2 3 2 1 2 2
3 4 4 5 7 2 5 5 5 4 4 1 4 8 12 10 21 16 17 15 12 12 13 10 11 9 8 6 3 3 4 3 3 3 3 6 6 4 2 2 3 2 3 4 3 4 4 1 0
2 5 3 5 8 2 6 5 8 7 5 4 5 11 12 13 12 16 20 18 18 16 15 14 12 9 9 5 4 4 5 4 4 3 2 5 5 5 4 3 3 2 3 4 3 4 3 2 1
4 4 6 8 8 9 4 7 6 6 4 6 4 3 10 8 10 16 19 18 18 16 15 15 10 11 8 5 3 2 3 2 2 4 4 5 2 4 5 2 1 3 3 3 4 3 3 1 1
4 6 11 5 9 7 13 5 9 8 5 7 6 6 4 8 9 14 18 18 17 14 14 14 10 8 7 4 4 2 3 2 1 4 5 4 4 5 5 3 2 5 4 2 2 4 3 5 2
7 7 3 2 10 5 9 13 10 12 14 13 9 11 7 6 9 13 18 18 18 17 16 13 12 9 5 4 3 3 3 2 3 3 2 5 6 5 5 5 2 4 4 2 1 6 1 3 3
8 9 9 8 13 11 8 7 9 9 5 10 11 6 6 9 14 12 18 19 16 15 15 14 11 11 7 5 4 3 4 3 0 1 3 4 6 6 6 6 6 4 3 2 2 4 7 1 2
6 3 14 14 11 6 7 5 5 11 17 14 17 11 12 13 8 15 17 18 18 16 15 13 12 11 8 8 5 6 5 4 4 4 3 4 6 6 6 6 6 5 3 2 1 4 4 4 1
6 3 8 6 5 4 1 4 7 7 11 19 19 17 16 15 13 14 20 20 18 15 14 13 13 11 8 9 8 5 5 4 3 3 5 3 3 5 6 8 7 6 4 3 2 2 4 3 2
3 7 9 5 3 3 7 7 7 5 12 16 16 20 16 14 13 13 16 17 15 13 13 12 13 11 9 8 8 8 7 6 3 4 4 4 4 4 5 7 6 5 4 4 4 3 5 4 4
7 8 4 5 4 7 2 5 9 6 7 17 21 18 16 11 13 14 10 17 15 16 15 13 14 13 11 10 9 8 8 7 7 6 5 5 3 3 6 5 6 4 5 6 5 4 4 4 2
3 10 8 6 4 7 2 4 5 3 6 9 12 10 10 10 11 14 12 18 18 18 17 17 16 15 11 11 11 8 8 5 5 5 4 4 4 4 4 6 6 6 6 4 4 2 2 2 2
2 1 8 6 1 3 2 2 3 7 7 5 1 5 9 8 10 13 14 12 17 17 18 19 17 15 14 13 11 9 8 7 7 7 5 4 5 4 6 6 6 6 5 5 4 3 4 2 2
10 5 5 4 2 2 3 1 5 1 2 1 5 8 9 5 9 9 8 7 17 19 18 18 17 18 15 14 11 10 11 9 7 6 7 6 5 5 6 6 6 5 5 5 5 3 3 3 3
1 1 4 6 5 5 2 6 4 2 2 3 4 4 2 8 7 7 6 7 10 16 19 17 16 16 14 14 12 11 10 10 7 7 6 7 5 6 7 6 6 6 6 6 5 5 5 5 4
7 9 7 7 6 2 5 6 3 3 6 4 2 1 4 2 3 3 3 4 7 7 10 14 14 15 16 15 12 12 10 10 9 8 7 7 7 6 7 6 6 6 6 6 6 6 5 5 5
Wind_Direction
199 199 71 40 59 63 282 41 108 174 76 70 77 123 96 29 121 164 152 157 148 154 171 162 161 151 143 133 120 116 123 122 117 105 106 113 112 108 111 106 111 117 125 116 120 120 117 111 109
223 132 28 47 65 50 358 108 99 99 116 108 84 81 54 75 66 107 110 157 146 155 169 163 153 145 130 121 117 112 130 127 114 101 115 115 115 116 113 109 105 114 122 120 123 115 108 107 104
71 90 75 61 113 192 157 138 109 119 129 112 97 67 70 117 108 135 139 146 148 153 139 160 143 131 133 132 127 124 132 121 105 120 125 127 123 123 121 112 111 118 120 120 119 118 111 108 104
37 11 30 37 293 235 160 144 119 106 92 96 108 70 61 95 142 161 151 152 136 131 140 152 149 150 147 146 140 143 128 117 119 132 129 124 120 118 120 124 120 116 119 118 118 117 119 116 121
34 42 59 337 320 300 146 139 134 118 86 103 114 125 124 158 113 136 161 142 138 145 154 149 151 150 148 146 151 146 143 140 137 142 136 133 128 123 125 124 122 121 119 117 117 119 130 131 142
64 24 46 18 312 49 127 144 113 105 114 110 103 108 137 148 125 147 133 139 138 143 148 153 149 153 147 153 150 146 142 144 142 143 145 129 116 126 125 125 127 127 125 130 123 133 142 154 186
93 57 348 325 277 288 53 134 133 119 129 132 132 105 114 137 114 87 84 89 96 128 148 139 158 151 156 151 151 146 146 155 147 147 140 133 123 128 137 136 136 125 129 132 130 145 177 212 226
115 102 84 253 317 284 356 45 158 139 120 131 131 150 157 140 120 104 53 114 131 114 131 140 137 120 135 146 156 153 157 156 157 153 149 140 136 139 143 161 146 133 136 134 142 176 251 283 306
79 99 188 215 244 338 346 59 152 134 135 161 118 144 140 134 132 150 157 140 77 115 141 157 150 147 144 155 169 164 165 167 164 161 156 149 151 147 154 166 155 141 148 170 199 235 274 288 296
15 148 209 214 203 152 319 56 331 144 150 114 115 124 136 139 148 160 163 175 157 159 174 186 164 166 165 163 161 141 184 164 163 165 154 155 183 192 188 183 179 182 195 212 231 257 267 277 291
185 200 199 224 225 146 317 354 357 116 104 147 143 146 147 154 156 162 172 176 175 174 160 180 169 163 164 147 157 170 194 188 191 189 177 197 216 234 178 209 255 309 261 283 280 274 266 272 282
151 191 187 187 204 133 150 291 38 53 268 143 149 158 159 166 167 165 168 177 166 178 163 158 151 149 147 149 156 130 195 205 210 214 195 194 201 220 224 234 247 248 252 255 256 269 270 271 267
188 154 182 154 161 177 116 72 105 65 266 131 158 154 158 166 167 171 169 163 162 162 163 163 139 177 158 138 130 178 220 251 227 200 205 181 196 204 177 241 249 254 253 241 240 245 249 240 253
165 82 64 48 116 155 162 118 174 126 27 171 170 169 177 169 158 141 157 156 161 173 173 156 171 193 152 141 169 203 252 235 223 169 177 188 200 201 201 217 240 255 241 253 222 243 238 225 216
145 110 86 39 166 242 131 118 174 140 6 151 143 210 171 167 141 157 166 162 164 171 161 170 172 188 168 178 182 221 246 222 188 200 195 185 178 197 126 224 253 277 322 345 25 339 344 5 325
122 68 117 278 324 208 119 248 246 193 197 50 281 218 173 152 156 161 171 153 164 159 165 168 175 181 172 178 164 195 233 207 173 156 176 158 181 159 119 28 345 323 34 52 45 41 338 262 174
246 152 104 301 201 265 151 260 232 178 201 155 271 185 185 168 167 167 169 157 163 169 163 168 185 173 176 176 215 204 229 164 150 187 156 185 149 134 109 65 69 76 57 60 54 51 27 23 41
209 131 176 184 204 210 170 242 273 215 206 156 262 260 192 169 187 169 166 160 160 166 167 167 173 179 169 157 148 160 129 133 154 201 194 198 160 147 118 103 129 65 82 50 49 66 51 91 208
231 247 168 215 161 166 200 219 224 224 240 228 217 230 189 164 178 157 165 160 161 162 165 168 161 163 152 154 131 123 152 207 228 240 205 179 188 145 131 142 81 74 85 160 275 107 38 14 322
272 194 174 104 171 146 189 226 209 209 218 215 200 220 195 153 148 150 159 164 169 170 169 167 172 151 175 157 148 152 145 202 240 203 239 201 182 141 155 155 139 145 135 18 5 94 110 341 330
274 173 176 167 192 211 145 283 181 229 259 225 229 215 182 182 170 158 161 168 169 171 172 172 178 163 169 178 123 92 93 64 263 297 241 211 187 166 161 160 149 192 106 159 264 95 95 251 339
205 97 183 162 149 205 156 245 252 193 210 217 231 180 182 193 178 160 173 170 176 178 173 175 178 170 159 165 161 154 168 170 212 195 210 205 212 184 167 162 160 167 141 148 153 158 132 161 66
217 22 133 143 173 99 287 49 270 151 212 217 210 218 192 199 197 166 174 181 180 172 177 178 174 167 168 167 165 164 165 194 190 195 195 215 231 199 182 175 182 185 171 154 245 141 137 157 136
82 59 40 54 111 18 210 152 279 194 213 210 209 218 204 197 198 195 174 180 177 175 172 174 174 174 173 172 169 181 188 186 185 211 192 212 212 205 202 171 197 188 169 167 208 194 169 202 172
79 61 3 358 15 221 125 145 243 296 245 200 201 208 209 184 186 195 181 179 181 178 175 177 179 188 180 177 174 174 193 186 202 194 189 184 206 220 213 190 188 190 185 184 164 176 169 195 202
177 141 155 193 187 258 339 211 257 291 312 206 212 203 196 188 185 197 187 178 181 182 178 180 185 185 185 185 187 175 174 177 204 202 203 203 198 216 215 214 199 194 193 189 170 175 212 197 232
265 119 186 119 71 42 244 318 2 6 29 47 233 178 221 177 188 200 205 173 183 186 183 187 189 187 186 193 192 185 179 175 196 204 203 204 220 226 214 196 204 205 190 196 188 205 218 187 248
147 187 50 14 157 291 320 246 216 216 70 333 275 241 224 167 160 192 178 202 185 185 190 189 189 191 188 186 194 193 188 187 190 194 208 208 226 226 201 188 189 206 207 214 204 213 240 210 235
343 341 78 115 138 164 180 263 249 129 302 192 254 283 180 190 162 144 175 176 197 194 192 188 189 190 188 191 187 195 194 189 185 188 214 200 189 183 180 185 192 198 207 214 205 205 201 205 236
192 198 144 128 246 166 148 267 267 129 189 179 194 146 54 131 198 143 100 164 153 159 191 195 187 190 192 192 189 188 193 193 187 193 204 184 198 194 183 190 200 208 210 214 204 216 213 213 238